Regional Weather Roundup
Issued by NWS

Home | Current Version | Previous Version | Text Only | Print | Product List | Glossary Off
Versions: 1 2 3 4 5 6 7 8 9 10 11 12 13 14 15 16 17 18 19 20 21 22 23 24 25 26 27 28 29 30 31 32 33 34 35 36 37 38 39 40 41 42 43 44 45 46 47 48 49 50

000
ASUS45 KBOU 231907
RWRCO

WEATHER ROUNDUP FOR COLORADO
NATIONAL WEATHER SERVICE DENVER/BOULDER CO
100 PM MDT SAT SEP 23 2017

NOTE: "FAIR" INDICATES FEW OR NO CLOUDS BELOW 12000 FEET WITH NO
SIGNIFICANT WEATHER AND/OR OBSTRUCTIONS TO VISIBILITY.

COZ001>005-013-030-031-232000-
...NORTHWEST COLORADO...

CITY           SKY/WX    TMP DP  RH WIND       PRES   REMARKS
CRAIG          CLOUDY    52  39  61 SE22G29   29.91F
HAYDEN         LGT RAIN  47  42  83 SE13      29.99F
MEEKER         PTSUNNY   51  41  68 SE13G28   29.93R
RABBIT EARS PA SNOW      32  32 100 W8        30.09S VSB 1/2 WCI  25
STEAMBOAT SPGS CLOUDY    42  39  88 CALM      30.00S
WALDEN         CLOUDY    41  37  87 N13       30.03R
$$

COZ006>008-011-232000-
...WEST CENTRAL VALLEYS...

CITY           SKY/WX    TMP DP  RH WIND       PRES   REMARKS
GRAND JUNCTION FAIR      57  46  66 SE16      29.86F
MONTROSE       LGT RAIN  52  46  80 SE13G21   29.95F
EAGLE          CLOUDY    47  43  86 SW7       30.01R FOG
RIFLE          LGT RAIN  51  48  89 NE7       29.93F
DELTA          NOT AVBL
NUCLA          CLOUDY    52  45  76 E13       29.94F
$$

COZ017>023-064>068-232000-
...SOUTHWEST COLORADO...

CITY           SKY/WX    TMP DP  RH WIND       PRES   REMARKS
DURANGO        LGT RAIN  52  48  86 W18G32    29.97S
CORTEZ         CLOUDY    53  45  74 SE14      29.89F
PAGOSA SPRINGS CLOUDY    59  42  53 SW20G26   29.98R THUNDER
TELLURIDE      CLOUDY    39  39  99 W6        30.04F
WOLF CREEK PAS TSTM      34  34 100 S26G37    30.15F VSB<1/4 WCI  21
$$

COZ009-010-012-014-032>034-037-058>063-232000-
...CENTRAL COLORADO...

CITY           SKY/WX    TMP DP  RH WIND       PRES   REMARKS
ASPEN          LGT RAIN  44  41  89 N9        29.99F
BUENA VISTA    PTSUNNY   57  48  72 SE15G21   29.97S
COPPER MTN     CLOUDY    50  30  46 SE32G39   30.10R
BERTHOUD PASS  HAZE      34  27  75 SE29G35   30.16F VSB<1/4 WCI  20
COTTONWOOD PAS CLOUDY    54  48  82 E8G16     30.05F
GUNNISON       LGT RAIN  50  41  71 SW17G29   29.95R
KREMMLING      LGT RAIN  59  43  55 NW7G20    29.95F
LEADVILLE      PTSUNNY   53  34  48 SE20G30   29.99F
MONARCH PASS   PTSUNNY   43  37  81 S21G36    30.26F
SALIDA         CLOUDY    58  51  77 W13       30.01F
SUNLIGHT       HVY SNOW  32  32 100 SW18G29   30.11S VSB 1/4 WCI  20
WILKERSON PASS PTSUNNY   45  37  76 S10G18    30.17F
$$

COZ069>075-232000-
...SAN LUIS VALLEY/SANGRE DE CRISTO MOUNTAINS...

CITY           SKY/WX    TMP DP  RH WIND       PRES   REMARKS
ALAMOSA        CLOUDY    63  41  44 SW17      29.93F
DEL NORTE      PTSUNNY   61  43  50 SE8       29.95F THUNDER
LA VETA PASS   PTSUNNY   59  37  44 S20G30    30.22F
SAGUACHE       CLOUDY    61  43  51 SW3       29.96F
$$

COZ035-036-038>040-232000-
...NORTHERN COLORADO FRONT RANGE...

CITY           SKY/WX    TMP DP  RH WIND       PRES   REMARKS
DENVER INTL AP CLOUDY    51  42  71 E3        29.97F
DMNS CITY PARK   N/A     52  42  69 NE8G14    29.96F
AURORA         CLOUDY    51  44  77 NE6       29.97F
FRONT RANGE AP CLOUDY    52  34  50 N5        29.99F
ERIE MUNI ARPT CLOUDY    53  42  65 E3        30.02F
BOULDER MUN AP CLOUDY    52  45  76 NE5       29.97F
CENTENNIAL     CLOUDY    52  44  74 N12       29.96F
BROOMFIELD     CLOUDY    50  43  76 MISG      29.99F
FORT COLLINS   LGT RAIN  52  43  71 E14       29.98F
LONGMONT       CLOUDY    54  46  73 NE3       29.99F
$$

COZ041-046-047-076>085-087-088-232000-
...PIKES PEAK/PALMER DIVIDE AND SOUTHERN FOOTHILLS...

CITY           SKY/WX    TMP DP  RH WIND       PRES   REMARKS
COLO. SPRINGS  PTSUNNY   62  50  64 VRB6      29.95F
A. F. ACADEMY  NOT AVBL
SCHRIEVER AFB  PTSUNNY   57  48  71 E9        29.96F
CHEYENNE MTN   FAIR      57  45  64 NE5       29.92F
ELLICOTT         N/A    N/A N/A N/A SE16      29.94F
FALCON         CLOUDY    59  47  66 SE9       29.99F
FORT CARSON    PTSUNNY   62  48  59 CALM      29.92F
LIMON            N/A    N/A N/A N/A MISG      29.96S
MONUMENT HILL  CLOUDY    59  46  63 SE14      29.99F
CANON CITY     PTSUNNY   66  48  52 E8        29.88F
WALSENBURG     MOCLDY    77  48  36 SE12G17   29.88F
TRINIDAD       FAIR      65  54  67 S20       29.90F
$$

COZ042>045-048>051-090-091-232000-
...NORTHEAST COLORADO...

CITY           SKY/WX    TMP DP  RH WIND       PRES   REMARKS
GREELEY ARPT   CLOUDY    50  44  80 E7        29.99F
AKRON          LGT RAIN  47  45  93 N9        29.92F
BURLINGTON     PTSUNNY   61  50  67 E5        29.97F
WRAY           PTSUNNY   55  54  94 N6        29.98R
YUMA           CLOUDY    48  46  93 E10       29.96R
STERLING       RAIN      46  46 100 N10       29.94F
HOLYOKE        CLOUDY    54  52  94 N9        29.97F
FORT MORGAN    LGT RAIN  48  44  87 NE10      29.96F
$$

COZ086-089-092>099-232000-
...SOUTHEAST COLORADO...

CITY           SKY/WX    TMP DP  RH WIND       PRES   REMARKS
PUEBLO         PTSUNNY   63  52  67 E15       29.87F
LA JUNTA       LGT RAIN  58  57  97 E16       29.91F FOG
LAMAR          CLOUDY    70  55  59 NE7       29.89F
SPRINGFIELD      N/A     76  63  64 S18G24    29.90F
$$



USA.gov is the U.S. government's official web portal to all federal, state and local government web resources and services.